Rbgn^[z[y[W
メイン
   新天体発見情報
     Comet C/2017 A3 (Elenin)
投稿するにはまず登録を

スレッド表示 | 古いものから 前のトピック | 次のトピック | 下へ
投稿者 スレッド
佐藤裕久
投稿日時: 2017-1-16 21:21
モデレータ
登録日: 2005-6-12
居住地: 日本
投稿: 2505
オンライン
Comet C/2017 A3 (Elenin)

L. Elenin (Lyubertsy, ロシア)の通報によると、1月5日UT、Siding Spring にあるISON-SSO天文台
の0.4-m f/2.4 アストログラフで得た3枚のCCD画像から約14"の拡散したコマのある彗星を発見した。
小惑星センターのPCCP webpageに公表後、 C. Jacques、E. PimentelとJ. Barros (0.45-m f/2.9 
反射望遠鏡, SONEAR天文台, Oliveira, ブラジル)や佐藤英貴氏(東京都文京区, iTelescope天文台,
0.51-m f/6.8 アストログラフ+輝度フィルター, Siding Spring, 遠隔操作)らCCD位置観測者
によって彗星状と観測された。

発見位置は次のとおり、

     2017 UT             R.A. (2000) Decl.       Mag.   Observer
     Jan.  5.45843    6 52 57.13   -51 07 47.8   17.6   Elenin
           5.46508    6 52 56.21   -51 07 42.9   17.9     "
           5.47172    6 52 55.35   -51 07 37.9   17.6     "

暫定放物線軌道要素と位置推算表は次のとおり、

Orbital elements:
    C/2017 A3 (Elenin)
T 2017 Jan. 20.20584 TT                                 MPCW
q   3.9110363            (2000.0)            P               Q
                   Peri.  301.86870     -0.19566699     -0.01642393
                   Node    96.73373     +0.80011667     +0.57545602
e   1.0            Incl.   99.12534     -0.56703416     +0.81766780
From 84 observations 2017 Jan. 5-10.

Ephemeris:
    C/2017 A3 (Elenin)
Date    TT    R. A. (2000) Decl.     Delta      r     Elong.  Phase   m1
2016 12 12    07 41 17.3 -54 10 52   3.6864  3.9259    96.8    14.4  18.3
...
2016 12 27    07 11 51.0 -52 48 45   3.5742  3.9167   103.1    14.2  18.2
...
2017 01 04    06 55 48.6 -51 25 57   3.5294  3.9136   105.8    14.0  18.2
...
2017 01 10    06 44 15.7 -50 05 27   3.5046  3.9120   107.3    13.9  18.1
2017 01 11    06 42 24.1 -49 50 32   3.5012  3.9119   107.6    13.9  18.1
2017 01 12    06 40 33.9 -49 35 13   3.4981  3.9117   107.7    13.9  18.1
...
2017 01 18    06 30 02.8 -47 54 58   3.4845  3.9111   108.6    13.8  18.1
...
2017 01 26    06 17 37.0 -45 21 06   3.4808  3.9114   108.8    13.8  18.1
...
2017 02 10    05 59 58.0 -39 46 34   3.5205  3.9152   106.4    14.0  18.2

(CBET 4344、MPEC 2017-A75)
スレッド表示 | 古いものから 前のトピック | 次のトピック | トップ

投稿するにはまず登録を
 
© 1999 Tsutomu Seki.